www.pogodaiklimat.ru
ПОГОДА в Ченстохова

Архив погоды в Ченстохова (Польша)

Время
(UTC), дата
16 21.05
17 21.05
18 21.05
19 21.05
20 21.05
21 21.05
22 21.05
23 21.05
00 22.05
01 22.05
02 22.05
03 22.05
04 22.05
05 22.05
06 22.05
07 22.05
08 22.05
09 22.05
10 22.05
11 22.05
12 22.05
13 22.05
14 22.05
15 22.05
16 22.05
17 22.05
18 22.05
19 22.05
20 22.05
21 22.05
22 22.05
23 22.05
00 23.05
01 23.05
02 23.05
03 23.05
04 23.05
05 23.05
06 23.05
07 23.05
08 23.05
09 23.05
10 23.05
11 23.05
12 23.05
13 23.05
14 23.05
15 23.05
16 23.05
17 23.05
18 23.05
19 23.05
20 23.05
21 23.05
22 23.05
23 23.05
00 24.05
01 24.05
02 24.05
03 24.05
04 24.05
05 24.05
06 24.05
07 24.05
08 24.05
09 24.05
10 24.05
11 24.05
12 24.05
13 24.05
14 24.05
15 24.05
16 24.05
17 24.05
18 24.05
19 24.05
20 24.05
21 24.05
22 24.05
23 24.05
00 25.05
01 25.05
02 25.05
03 25.05
04 25.05
05 25.05
06 25.05
07 25.05
08 25.05
09 25.05
10 25.05
11 25.05
12 25.05
13 25.05
14 25.05
15 25.05
16 25.05
17 25.05
18 25.05
19 25.05
20 25.05
21 25.05
22 25.05
23 25.05
00 26.05
01 26.05
02 26.05
03 26.05
04 26.05
05 26.05
06 26.05
07 26.05
08 26.05
09 26.05
10 26.05
11 26.05
12 26.05
13 26.05
14 26.05
15 26.05
16 26.05
17 26.05
18 26.05
19 26.05
20 26.05
21 26.05
22 26.05
23 26.05
00 27.05
01 27.05
02 27.05
03 27.05
04 27.05
05 27.05
06 27.05
07 27.05
08 27.05
09 27.05
10 27.05
11 27.05
12 27.05
13 27.05
14 27.05
15 27.05
16 27.05
17 27.05
18 27.05
19 27.05
20 27.05
21 27.05
22 27.05
23 27.05
00 28.05
01 28.05
02 28.05
03 28.05
04 28.05
05 28.05
06 28.05
07 28.05
08 28.05
09 28.05
10 28.05
11 28.05
12 28.05
13 28.05
14 28.05
15 28.05
16 28.05
Ветер
(напр.,м/с)
Видим. Явления Облачность Т
(С)
Тd
(С)
f
(%)
Тe
(С)
Тes
(С)
Комфортность P
(гПа)
Po
(гПа)
Тmin
(С)
Tmax
(С)
R
(мм)
R24
(мм)
S
(см)
В 2 {7} 40 км н/о +24.9 +8.8 36 +25 +25 комфорт 1009.4 975.8
В 1 40 км н/о +24.1 +10.0 41 +25 +25 комфорт 1009.3 975.6
СВ 2 {7} 40 км н/о +23.2 +10.9 46 +25 +25 комфорт 1009.1 975.3 +19.0 +26.4
СВ 2 35 км н/о +22.0 +11.4 51 +24 +24 комфорт 1009.5 975.5
СВ 2 40 км н/о +20.8 +11.7 56 +24 +24 комфорт 1009.6 975.5
СВ 2 35 км н/о +19.6 +11.6 60 +22 +22 комфорт 1009.4 975.2
СВ 2 40 км н/о +19.0 +11.8 63 +20 +20 1009.5 975.2
СВ 2 40 км н/о +18.1 +11.9 67 +19 +19 1009.3 974.9
В 2 40 км н/о +17.6 +12.1 70 +18 +18 1009.4 974.9
СВ 3 30 км н/о +17.1 +12.2 73 +17 +17 1008.7 974.2
В 1 30 км н/о +16.2 +12.2 77 +17 +17 1008.6 974.0
СВ 2 30 км н/о +15.8 +12.2 79 +16 +16 1008.5 973.9
В 2 16 км н/о +16.1 +12.5 79 +16 +16 1008.5 973.9
В 1 27 км н/о +17.6 +12.9 74 +19 +19 1008.7 974.3
Ю 1 20 км 3/0
[Ac trans Ci fib]
+19.3 +13.2 68 +22 +27 комфорт 1008.7 974.5 +15.5 +23.3
З 1 20 км 5/3 600 м
[Cu med, cong Ac und]
+20.7 +13.9 65 +24 +30 комфорт 1008.7 974.6
СЗ 1 20 км 5/3 1000 м
[Cu med, cong Ac trans]
+23.0 +14.3 58 +27 +35 душно 1008.3 974.5
Ю 1 20 км 8/8 1000 м
[Cu med, cong]
+24.4 +14.5 54 +27 +30 жарко 1008.2 974.6
ЮЗ 2 30 км 9/9 1000 м
[Cu med, cong]
+23.1 +14.1 57 +27 +28 душно 1008.3 974.5
ЮЗ 2 20 км гроза без осадков 9/9 600 м
[Cb cap]
+23.2 +13.9 56 +27 +28 душно 1008.1 974.3
ЮЗ 2 30 км гроза, ливневой дождь 9/9 600 м
[Cb cap]
+21.1 +14.0 64 +24 +25 комфорт 1008.1 974.1 0.0
ЮЗ 2 30 км в посл. час ливневой дождь {гроза} 9/3 600 м
[Cu med, cong Ac As]
+21.0 +13.7 63 +24 +28 комфорт 1008.7 974.7
З 1 40 км н/о +20.7 +14.1 66 +24 +24 комфорт 1008.8 974.7
Ю 1 23 км слаб. ливневой дождь н/о +18.9 +15.4 80 +21 +21 комфорт 1009.5 975.2
С 1 10 км слаб. дождь н/о +17.2 +15.9 92 +18 +18 1009.4 974.9
ЮЗ 1 8000 м в посл. час дождь н/о +17.0 +16.0 94 +18 +18 1009.4 974.9
В 1 6000 м дымка н/о +16.9 +16.1 95 +18 +18 1010.0 975.4 +16.9 +24.8 10
ЮВ 1 7000 м дымка н/о +16.7 +15.9 95 +18 +18 1010.6 976.0
ЮВ 1 4500 м дымка н/о +16.6 +15.8 95 +17 +17 1010.6 976.0
Ю 1 1200 м в посл. час дождь н/о +16.1 +15.6 97 +17 +17 1010.5 975.8
ЮЗ 1 13 км н/о +15.4 +14.4 94 +16 +16 1011.0 976.2
Ю 1 16 км в посл. час дождь н/о +14.8 +14.0 95 +15 +15 1011.4 976.5
ЮЗ 1 6000 м слаб. дождь н/о +14.5 +13.9 96 +15 +15 1011.6 976.7 0.3
ЮЗ 1 10 км в посл. час морось н/о +14.1 +13.3 95 +14 +14 1011.9 976.9
Ю 1 5000 м дымка н/о +13.2 +12.6 96 +13 +13 1012.6 977.5
ЮЗ 1 15 км н/о +13.5 +12.9 96 +14 +14 1013.0 977.9
ЮЗ 1 18 км н/о +13.6 +12.8 95 +14 +14 1013.4 978.3
ЮЗ 2 22 км н/о +14.5 +12.7 89 +14 +14 1013.6 978.6
З 2 20 км 9/3 600 м
[Cu med, cong Ac und]
+15.8 +13.1 84 +16 +17 1014.0 979.2 +13.2 +17.0 0.3 10.2
ЮЗ 1 20 км 9/9 600 м
[Sc]
+16.1 +12.8 81 +17 +18 1014.5 979.7
З 1 20 км 9/8 600 м
[Sc Ci sp]
+17.4 +12.5 73 +18 +21 1014.7 980.0
З 2 30 км 9/9 600 м
[Cu Sc]
+17.9 +12.6 71 +18 +20 1015.0 980.4
З 2 30 км 9/9 600 м
[Cu Sc]
+18.6 +12.3 67 +20 +21 1015.2 980.7
З 2 30 км 8/8 600 м
[Cu Sc]
+19.8 +12.5 63 +22 +25 комфорт 1015.4 981.0
ЮЗ 1 40 км 8/5 1000 м
[Cu med, cong Ac trans Ci sp]
+19.8 +12.1 61 +22 +29 комфорт 1015.3 980.9
З 2 30 км 8/5 1000 м
[Cu med, cong Ci sp]
+21.7 +13.3 59 +24 +30 комфорт 1015.0 980.8
З 2 26 км н/о +20.8 +11.7 56 +24 +24 комфорт 1015.2 980.9
С 1 30 км н/о +20.7 +11.9 57 +24 +24 комфорт 1015.5 981.2
СЗ 3 40 км н/о +20.2 +11.9 59 +22 +22 комфорт 1015.6 981.2
С 2 45 км н/о +20.0 +11.7 59 +22 +22 комфорт 1015.8 981.4
СЗ 2 35 км н/о +19.4 +12.2 63 +21 +21 комфорт 1016.1 981.6 +15.4 +21.7
СЗ 2 35 км н/о +18.0 +12.7 71 +19 +19 1016.9 982.2
С 1 24 км н/о +17.2 +12.7 75 +18 +18 1017.4 982.6
С 1 25 км н/о +16.2 +12.7 80 +17 +17 1017.8 982.9
СЗ 1 21 км н/о +15.1 +12.6 85 +16 +16 1018.3 983.2
СЗ 1 17 км н/о +14.4 +12.6 89 +15 +15 1018.5 983.3
С 2 18 км н/о +14.7 +12.4 86 +14 +14 1018.2 983.1
СЗ 1 13 км н/о +14.3 +12.2 87 +15 +15 1018.5 983.3
С 1 13 км н/о +14.2 +12.1 87 +15 +15 1018.8 983.6
В 1 9000 м н/о +14.2 +12.6 90 +14 +14 1018.8 983.6
штиль 0 9000 м в посл. час морось н/о +14.4 +12.9 91 +14 +14 1018.8 983.6
С 1 8000 м слаб. ливневой дождь н/о +15.1 +13.8 92 +16 +16 1019.0 983.9
В 1 10 км 9/3 600 м
[Cb cap Ac trans]
+17.4 +14.5 83 +18 +20 1018.8 984.0 +14.0 +19.4 0.0 0.0
В 2 20 км 8/3 600 м
[Cu med, cong Ac trans]
+19.1 +14.6 75 +21 +24 комфорт 1018.9 984.3
СВ 2 20 км 8/3 600 м
[Cu med, cong Ac trans]
+20.6 +14.0 66 +24 +29 комфорт 1018.6 984.2
В 2 20 км 5/4 600 м
[Cu med, cong Ci fib]
+22.0 +13.1 57 +25 +33 комфорт 1018.4 984.1
СВ 3 30 км 6/5 1000 м
[Cu med, cong Ci fib]
+22.8 +13.8 57 +26 +33 жарко 1018.0 983.8
В 3 30 км 5/5 1000 м
[Cu med, cong]
+23.5 +13.4 53 +26 +33 жарко 1017.1 983.1
В 2 30 км 8/6 1000 м
[Cb cap Ci sp]
+23.4 +12.4 50 +26 +32 жарко 1016.6 982.6
В 2-7 {7} 30 км гроза без осадков 9/8 600 м
[Cb cap Ci sp]
+23.5 +12.5 50 +25 +28 комфорт 1016.3 982.3
ЮВ 3 {13} 8000 м ливневой дождь н/о +15.4 +14.1 92 +15 +15 1019.4 984.3
Ю 1 {13} 9000 м ливневой дождь н/о +15.3 +14.3 94 +16 +16 1018.9 983.8
В 2 29 км в посл. час дождь н/о +16.0 +14.2 89 +16 +16 1019.0 984.0
СВ 1 16 км н/о +16.3 +14.1 87 +17 +17 1018.8 983.9
В 1 {13} 25 км н/о +15.4 +13.2 87 +16 +16 1018.3 983.3 +15.0 +24.7 3
ЮВ 1 13 км н/о +14.6 +13.5 93 +15 +15 1018.9 983.8
ЮВ 1 13 км н/о +14.4 +13.4 94 +15 +15 1019.7 984.5
В 1 11 км н/о +14.3 +13.5 95 +15 +15 1019.6 984.4
В 1 9000 м дымка н/о +14.0 +13.4 96 +14 +14 1020.0 984.7
В 1 24 км н/о +13.8 +12.2 90 +14 +14 1019.8 984.5
ЮЗ 1 8000 м дымка н/о +13.0 +12.2 95 +13 +13 1019.7 984.3 0.1
ЮВ 1 6000 м дымка н/о +12.8 +12.2 96 +13 +13 1019.6 984.2
ЮВ 1 4300 м дымка н/о +12.3 +11.8 97 +12 +12 1019.9 984.4
ЮВ 1 6000 м дымка н/о +12.0 +11.5 97 +12 +12 1020.3 984.8
В 1 6000 м дымка н/о +12.6 +12.1 97 +12 +12 1020.4 985.0
ЮВ 1 8000 м дымка н/о +14.4 +13.1 92 +15 +15 1020.1 984.9
ЮВ 1 19 км н/о +16.6 +13.7 83 +17 +17 1020.1 985.2 +11.9 +16.8 0.2 3.5
ЮВ 2 17 км н/о +16.8 +13.7 82 +17 +17 1020.4 985.5
Ю 2 27 км н/о +19.5 +14.7 74 +22 +22 комфорт 1019.9 985.3
Ю 2 24 км н/о +21.7 +15.3 67 +25 +25 комфорт 1019.7 985.4
ЮВ 2 30 км н/о +22.3 +13.6 58 +25 +25 комфорт 1019.6 985.3
ЮВ 2 35 км н/о +22.9 +12.5 52 +26 +26 жарко 1019.2 985.0
Ю 2 35 км н/о +23.8 +11.8 47 +25 +25 комфорт 1018.7 984.6
Ю 2 {8} 30 км н/о +25.0 +10.5 40 +26 +26 жарко 1017.9 984.0
В 2 {10} 35 км н/о +24.7 +10.6 41 +26 +26 жарко 1017.5 983.6
З 2 {10} 15 км ливневой дождь н/о +21.1 +12.5 58 +23 +23 комфорт 1017.9 983.6
СВ 1 {7} 6000 м ливневой дождь н/о +18.1 +14.0 77 +19 +19 1018.8 984.1
СВ 1 30 км в посл. час дождь н/о +17.3 +15.1 87 +18 +18 1018.8 984.0
СВ 1 {10} 35 км н/о +17.9 +14.2 79 +19 +19 1019.4 984.6 +16.5 +25.4 2
С 2 30 км н/о +16.7 +13.8 83 +17 +17 1019.4 984.5
СВ 1 40 км н/о +16.8 +12.7 77 +18 +18 1019.8 984.9
В 1 25 км н/о +16.2 +13.1 82 +17 +17 1020.0 985.0
В 2 35 км н/о +15.9 +12.5 80 +16 +16 1019.8 984.8
ЮВ 1 30 км н/о +14.5 +12.2 86 +15 +15 1020.3 985.1
ЮВ 1 40 км н/о +13.9 +11.6 86 +14 +14 1020.3 985.0
ЮВ 1 29 км н/о +13.7 +11.9 89 +14 +14 1019.9 984.6
Ю 1 12 км н/о +12.7 +11.6 93 +13 +13 1019.9 984.5
Ю 1 18 км н/о +12.3 +11.0 92 +12 +12 1020.1 984.6
В 1 22 км н/о +14.0 +11.5 85 +14 +14 1020.4 985.1
В 1 24 км н/о +16.2 +11.6 74 +17 +17 1020.2 985.2
СВ 1 26 км н/о +18.4 +11.2 63 +20 +20 1020.8 986.0 +12.2 +18.4 1.9
С 1 28 км н/о +19.1 +11.6 62 +21 +21 комфорт 1021.0 986.3
СВ 1 35 км н/о +21.2 +12.9 59 +23 +23 комфорт 1020.7 986.3
СВ 2 25 км н/о +22.6 +11.9 51 +25 +25 комфорт 1020.3 986.0
СВ 3 30 км н/о +24.0 +12.0 47 +26 +26 жарко 1020.0 985.9
В 3 23 км н/о +25.3 +11.5 42 +27 +27 жарко 1019.5 985.6
В 2 35 км н/о +25.2 +9.5 37 +26 +26 жарко 1019.1 985.2
В 2 35 км н/о +25.3 +9.6 37 +26 +26 жарко 1018.8 984.9
В 3 30 км н/о +26.0 +10.2 37 +27 +27 жарко 1018.5 984.7
Ю 2 45 км н/о +23.5 +10.5 44 +25 +25 комфорт 1018.9 984.8
Ю 1 45 км н/о +22.0 +10.2 47 +24 +24 комфорт 1019.3 985.0
Ю 1 45 км н/о +20.7 +10.8 53 +24 +24 комфорт 1019.6 985.2
СЗ 1 35 км н/о +20.2 +11.1 56 +23 +23 комфорт 1020.1 985.6 +18.2 +26.6
штиль 0 45 км н/о +19.1 +10.9 59 +20 +20 1021.2 986.5
Ю 1 30 км н/о +18.3 +12.3 68 +20 +20 1021.6 986.8
З 1 30 км н/о +16.9 +11.6 71 +18 +18 1021.4 986.4
ЮЗ 1 40 км н/о +17.3 +10.2 63 +18 +18 1021.2 986.3
ЮЗ 1 50 км н/о +16.1 +10.6 70 +17 +17 1021.3 986.3
СЗ 1 40 км н/о +15.4 +11.0 75 +16 +16 1021.2 986.1
ЮВ 1 19 км н/о +13.9 +11.4 85 +14 +14 1021.3 986.0
Ю 2 23 км н/о +13.4 +11.1 86 +13 +13 1021.1 985.7
Ю 1 21 км н/о +13.2 +11.1 87 +13 +13 1021.0 985.6
ЮВ 1 25 км н/о +14.1 +11.3 83 +14 +14 1021.1 985.8
Ю 1 23 км н/о +16.0 +11.8 76 +17 +17 1021.2 986.1
Ю 1 20 км 1/0
[Ci sp]
+18.9 +12.4 66 +21 +27 комфорт 1021.0 986.3 +12.6 +20.4
ЮВ 2 20 км 1/0
[Ci sp]
+21.2 +11.8 55 +23 +32 комфорт 1020.7 986.3
В 1 30 км 1/0
[Ci sp]
+22.7 +10.5 46 +25 +38 комфорт 1020.3 986.1
ЮВ 2 30 км 1/1 1000 м
[Cu med, cong]
+24.6 +11.5 44 +26 +39 жарко 1019.9 985.9
Ю 2 30 км 3/3 1000 м
[Cu med, cong]
+25.6 +9.4 36 +26 +38 жарко 1019.4 985.5
В 2 30 км 3/3 1000 м
[Cu med, cong]
+26.2 +5.7 27 +26 +37 жарко 1019.0 985.2
В 3 {8} 30 км 3/3 1000 м
[Cu med, cong]
+26.4 +4.8 25 +26 +35 жарко 1018.6 984.8
В 2 {7} 30 км 3/3 1000 м
[Cu med, cong]
+26.8 +5.1 25 +26 +35 жарко 1018.1 984.4
В 2 30 км н/о +26.7 +3.8 23 +25 +25 комфорт 1017.5 983.8
В 2 {8} 30 км н/о +26.5 +3.7 23 +25 +25 комфорт 1016.9 983.2
В 3 30 км н/о +26.0 +2.0 21 +25 +25 комфорт 1016.8 983.0
В 2 45 км н/о +24.9 +4.1 26 +24 +24 комфорт 1016.8 982.9
В 2 {8} 45 км н/о +23.4 +5.3 31 +24 +24 комфорт 1016.9 982.9 +18.9 +27.1
В 2 40 км н/о +21.9 +5.3 34 +22 +22 комфорт 1017.3 983.1
Ю 1 40 км н/о +19.7 +6.1 41 +21 +21 комфорт 1017.9 983.4
В 1 35 км н/о +18.2 +5.7 44 +19 +19 1017.9 983.2
В 1 45 км н/о +17.4 +6.3 48 +18 +18 1017.9 983.1
В 1 45 км н/о +16.4 +5.9 50 +17 +17 1017.7 982.8
ЮВ 1 50 км н/о +15.8 +6.0 52 +17 +17 1017.6 982.6
ЮВ 1 45 км н/о +14.3 +6.4 59 +15 +15 1017.4 982.3
ЮВ 2 40 км н/о +13.7 +6.5 62 +13 +13 1017.3 982.1
ЮВ 1 40 км н/о +12.7 +6.7 67 +13 +13 1017.2 981.9
ЮВ 1 30 км н/о +13.3 +7.7 69 +14 +14 1017.1 981.9
ЮВ 2 24 км н/о +15.1 +8.6 65 +15 +15 1016.9 981.9
ЮВ 1 20 км 3/0
[Ac cast Ci fib]
+19.0 +10.5 58 +21 +26 комфорт 1016.4 981.9 +12.7 +23.4
Ю 2 20 км 3/0
[Ac trans Ci sp]
+21.3 +10.5 50 +23 +31 комфорт 1016.3 982.0
ЮВ 2 20 км 3/0
[Ac trans Ci sp]
+23.1 +11.2 47 +25 +36 комфорт 1016.1 982.0
Ю 2 20 км 3/1 1000 м
[Cu med, cong Ac trans]
+24.8 +11.0 42 +26 +38 жарко 1015.9 982.0
ЮЗ 1 30 км 6/6 1000 м
[Cu med, cong]
+25.6 +9.8 37 +26 +34 жарко 1015.3 981.6
ЮВ 4 4000 м гроза, ливневой дождь 9/9 300 м
[Cb cap]
+17.6 +11.8 69 +17 +19 1017.3 982.6
З 1 20 км гроза без осадков {ливн. дождь} 8/8 600 м
[Cb cap]
+17.2 +13.3 78 +18 +22 1016.4 981.7 4
З 2 30 км в посл. час гроза 4/3 600 м
[Cb calv Ac trans Ci sp]
+22.8 +12.4 52 +26 +34 жарко 1015.0 980.9
СЗ 2 29 км н/о +24.0 +9.2 39 +25 +25 комфорт 1014.0 980.1
ЮЗ 1 27 км слаб. ливневой дождь н/о +24.4 +10.3 41 +25 +25 комфорт 1013.8 980.0
В 2 40 км в посл. час дождь н/о +23.5 +7.6 36 +24 +24 комфорт 1013.9 980.0
Местоположение метеостанции Ченстохова (Польша): широта 50.82 долгота 19.10 высота над уровнем моря 295 м.
В архиве по умолчанию представлена погода в Ченстохова за последнюю неделю. Архивные данные за месяц целиком и за предыдущие месяцы, начиная с января 2011 года, Вы можете получить, выбрав интересующий диапазон дат из раскрывающегося списка и нажав кнопку "Найти!".
*Определитесь, кто Вы:
Внимание! Время в таблицах - всемирное. Для получения местного времени необходимо прибавить поправку, которая равна 1 ч.
Некоторые строки с данными для отдельных станций могут быть выделены курсивом. Это означает, что фактические данные отсутствуют по различным причинам, а приведенные значения являются расчетными модельными данными для данного пункта наблюдений.
Смотрите также архив погоды в соседних городах и на ближайших метеорологических станциях:
Партнеры нашего сайта:      
Пояснения к столбцам:
  • Ветер - указаны скорость ветра в м/с - средняя за 10 мин, порывы в срок и между сроками (в фигурных скобках) и направление, откуда дует ветер: С - северный,
  • СВ - северо-восточный, В - восточный, ЮВ - юго-восточный, Ю - южный, ЮЗ - юго-западный, З - западный, СЗ - северо-западный.
  • Видимость - горизонтальная дальность видимости в метрах или километрах. При видимости от 1 до 10 км при отсутствии осадков обычно наблюдается дымка, при ухудшении видимости до 1 км и менее - туман. В сухую погоду видимость может ухудшаться дымом, пылью или мглою.
  • Явления - указаны атмосферные явления, наблюдавшиеся в срок или в последний час перед сроком; фигурными скобками обозначены явления, наблюдавшиеся между сроками (за 1-3 часа до срока); квадратными скобками обозначены град или гололедные отложения с указанием их диаметра в мм.
  • Облачность - указаны через наклонную черту общая и нижняя облачность в баллах и высота нижней границы облаков в метрах; квадратными скобками обозначены формы облаков: Ci - перистые, Cs - перисто-слоистые, Cc - перисто-кучевые, Ac - высококучевые, As - высокослоистые, Sc - слоисто-кучевые, Ns - слоисто-дождевые, Cu - кучевые, Cb - кучево-дождевые. Подробнее классификацию облаков см. в Атласе облаков (PDF).
  • T - Температура воздуха - температура, измеренная на высоте 2 м над землей.
  • Td - Температура точки росы - температура, при понижении до которой содержащийся в воздухе водяной пар достигнет насыщения.
  • f - Относительная влажность воздуха - влажноcть воздуха, измеренная на высоте 2 м над землей.
  • Te - Эффективная температура - температура, которую ощущает одетый по сезону человек в тени. Характеристика душности погоды. При расчете учитывается влияние влажности воздуха и скорости ветра на теплоощущения человека.
  • Tes - Эффективная температура на солнце - температура, которую ощущает человек, с поправкой на солнечный нагрев. Характеристика знойности погоды. Зависит от высоты солнца над горизонтом, облачности и скорости ветра. Ночью, в пасмурную погоду, а также при ветре 12 м/с и более поправка равна нулю.
  • P - Атмосферное давление - приведенное к уровню моря атмосферное давление.
  • Po - Атмосферное давление - измеренное на уровне метеостанции атмосферное давление.
  • Tmin - Минимальная температура - минимум температуры воздуха на высоте 2 м над землей.
  • Tmax - Максимальная температура - максимум температуры воздуха на высоте 2 м над землей.
  • R - Количество осадков - Количество выпавших осадков за период времени, мм. При наведении курсора мыши на число - период времени, за который выпало указанное количество осадков.
  • R24 - Количество осадков - Количество выпавших осадков за 24 часа, мм.
  • S - Снежный покров - Высота снежного покрова, см. При наведении курсора мыши на число - состояние снежного покрова и степень покрытия местности в баллах.